{"data":{"norad_id":67626,"intl_designator":"2026-020K","name":"STARLINK-36436","alt_names":[],"object_type":"PAYLOAD","status":"ACTIVE","operator":null,"country":"US","launch_date":"2026-01-30","launch_site_code":"AFETR","launch_vehicle":null,"mission":null,"orbit_class":"UNKNOWN","rcs_meters":null,"size_class":null,"mass_kg":null,"dimensions":null,"purposes":["comms"],"wikipedia_slug":null,"has_3d_model":false,"image_url":null,"decayed_at":null,"tle_current":{"epoch":"2026-09-19T00:27:48.735648Z","epoch_age_seconds":197682,"freshness":"STALE","line1":"1 67626U 26020K   26262.01931407  .00011648  00000+0  43199-3 0  9998","line2":"2 67626  43.0053 127.7129 0001569 262.6861  97.3812 15.27590543 35688","mean_motion":15.27590543,"eccentricity":0.0001569,"inclination_deg":43.0053,"raan_deg":127.7129,"arg_perigee_deg":262.6861,"mean_anomaly_deg":97.3812,"bstar":0.00043199,"rev_number":3568,"period_min":94.266098111083,"perigee_km":481.94101154116,"apogee_km":484.09404183163,"semimajor_km":6861.1545266864,"source":"CELESTRAK","updated_at":"2026-09-20T09:00:43.612743Z"}}}